Location: Unspecified
(0.0000°N, 0.0000°E)
Time: 01:52:44
(UTC+00:00)

Explorer 11/Cluster Stage 4 - All Passes

Search period start: 29 August 2016 00:00
Search period end: 08 September 2016 00:00
Orbit: 467 x 1265 km, 28.8° (Epoch: 28 August)

Date Brightness Start Highest point End Pass type
(mag) Time Alt. Az. Time Alt. Az. Time Alt. Az.
29 Aug - 05:59:01 10° S 06:00:40 12° SSE 06:02:16 10° SE daylight
29 Aug - 07:45:28 10° WSW 07:49:15 82° SSE 07:52:51 10° ENE daylight
29 Aug - 09:36:04 10° NW 09:37:34 12° NNW 09:39:08 10° N daylight
29 Aug - 16:54:55 10° N 16:59:15 17° NNE 17:03:58 10° ENE daylight
29 Aug - 18:41:26 10° NW 18:48:50 55° NNE 18:56:54 10° ESE visible
29 Aug - 20:30:34 10° WNW 20:38:26 52° SSW 20:46:22 10° SE visible
29 Aug - 22:23:09 10° WSW 22:28:23 18° SSW 22:33:25 10° SSE visible
30 Aug - 05:48:24 10° SSW 05:51:13 16° SSE 05:53:46 10° ESE daylight
30 Aug - 07:35:52 10° WSW 07:39:43 70° NNW 07:43:18 10° NE daylight
30 Aug - 16:44:51 10° NNW 16:49:33 19° NNE 16:54:46 10° ENE daylight
30 Aug - 18:31:37 10° NW 18:38:58 64° NNE 18:47:10 10° ESE visible
30 Aug - 20:21:01 10° W 20:28:36 45° SSW 20:36:23 10° SE visible
30 Aug - 22:14:08 10° WSW 22:18:44 16° SSW 22:23:12 10° S visible
31 Aug - 05:38:08 10° SSW 05:41:45 22° SSE 05:44:55 10° ESE visible
31 Aug - 07:26:19 10° WSW 07:30:12 49° NNW 07:33:42 10° NE daylight
31 Aug - 16:34:52 10° NNW 16:39:49 22° NNE 16:45:27 10° ENE daylight
31 Aug - 18:21:52 10° NW 18:29:06 75° NNE 18:37:21 10° ESE visible
31 Aug - 20:11:33 10° W 20:18:47 38° SSW 20:26:20 10° SE visible
31 Aug - 22:05:16 10° SW 22:09:06 14° SSW 22:12:53 10° S visible
01 Sep - 05:28:00 10° SW 05:32:16 30° SSE 05:35:52 10° E visible
01 Sep - 07:16:50 10° W 07:20:38 36° NNW 07:24:03 10° NE daylight
01 Sep - 16:24:57 10° NNW 16:30:06 25° NNE 16:36:02 10° E daylight
01 Sep - 18:12:11 10° WNW 18:19:15 87° NNE 18:27:28 10° ESE visible
01 Sep - 20:02:10 10° W 20:09:00 32° SSW 20:16:14 10° SSE visible
01 Sep - 21:56:40 10° SW 21:59:30 12° SSW 22:02:21 10° S visible
02 Sep - 03:31:42 10° S 03:33:20 11° SSE 03:34:52 10° SE visible
02 Sep - 05:17:57 10° SW 05:22:45 40° SSE 05:26:41 10° E visible
02 Sep - 07:07:26 10° W 07:11:05 27° NNW 07:14:19 10° NNE daylight
02 Sep - 16:15:06 10° NNW 16:20:20 29° NNE 16:26:31 10° E daylight
02 Sep - 18:02:34 10° WNW 18:09:25 80° SSW 18:17:32 10° SE daylight
02 Sep - 19:52:53 10° W 19:59:15 28° SSW 20:06:03 10° SSE visible
02 Sep - 21:48:43 10° SSW 21:49:58 10° SSW 21:51:11 10° S visible
03 Sep - 03:20:36 10° SSW 03:23:52 15° SSE 03:26:49 10° SE visible
03 Sep - 05:07:58 10° SW 05:13:12 54° SSE 05:17:24 10° ENE visible
03 Sep - 06:58:06 10° W 07:01:29 22° NNW 07:04:31 10° NNE daylight
03 Sep - 16:05:19 10° NNW 16:10:34 34° NNE 16:16:56 10° E daylight
03 Sep - 17:53:02 10° WNW 17:59:38 67° SSW 18:07:32 10° SE daylight
03 Sep - 19:43:44 10° WSW 19:49:33 23° SSW 19:55:48 10° SSE visible
04 Sep - 03:10:01 10° SSW 03:14:23 19° SSE 03:18:10 10° ESE visible
04 Sep - 04:58:02 10° SW 05:03:38 73° SSE 05:08:03 10° ENE visible
04 Sep - 06:48:53 10° WNW 06:51:54 17° NNW 06:54:36 10° N daylight
04 Sep - 15:55:35 10° NW 16:00:49 40° NNE 16:07:17 10° E daylight
04 Sep - 17:43:34 10° WNW 17:49:52 55° SSW 17:57:29 10° SE daylight
04 Sep - 19:34:42 10° WSW 19:39:53 20° SSW 19:45:28 10° SSE visible
05 Sep - 02:59:36 10° SSW 03:04:51 24° SSE 03:09:17 10° ESE visible
05 Sep - 04:48:09 10° WSW 04:54:01 87° NNW 04:58:37 10° ENE visible
05 Sep - 06:39:48 10° WNW 06:42:18 14° NNW 06:44:35 10° N daylight
05 Sep - 15:45:54 10° NW 15:51:05 49° NNE 15:57:34 10° ESE daylight
05 Sep - 17:34:11 10° W 17:40:09 45° SSW 17:47:22 10° SE daylight
05 Sep - 19:25:51 10° WSW 19:30:17 17° SSW 19:35:02 10° SSE visible
06 Sep - 01:02:56 10° S 01:05:00 11° SSE 01:06:59 10° SSE night (unlit)
06 Sep - 02:49:18 10° SSW 02:55:16 30° SSE 03:00:13 10° E visible
06 Sep - 04:38:19 10° WSW 04:44:22 69° NNW 04:49:06 10° NE visible
06 Sep - 06:30:58 10° NW 06:32:42 12° NNW 06:34:19 10° N daylight
06 Sep - 13:51:28 10° NNE 13:52:53 11° NNE 13:54:23 10° NE daylight
06 Sep - 15:36:17 10° NW 15:41:22 59° NNE 15:47:48 10° ESE daylight
06 Sep - 17:24:54 10° W 17:30:29 37° SSW 17:37:11 10° SE daylight
06 Sep - 19:17:14 10° SW 19:20:43 14° SSW 19:24:25 10° S visible
07 Sep - 00:51:51 10° S 00:55:30 14° SSE 00:58:54 10° SE night (unlit)
07 Sep - 02:39:04 10° SW 02:45:39 37° SSE 02:51:03 10° E visible
07 Sep - 04:28:31 10° WSW 04:34:41 55° NNW 04:39:32 10° NE visible
07 Sep - 13:41:04 10° N 13:43:17 13° NNE 13:45:41 10° ENE daylight
07 Sep - 15:26:42 10° NW 15:31:39 74° NNE 15:37:59 10° ESE daylight
07 Sep - 17:15:43 10° W 17:20:50 30° SSW 17:26:58 10° SSE daylight
07 Sep - 19:09:06 10° SSW 19:11:12 11° SSW 19:13:23 10° S visible
